GFSSW_prec_cloud_258.txt.gz
Cloud_Cover
3 10 16 18 14 20 12 20 22 10 28 2 4 4 30 10 0 2 5 38 98 5 100 100 100 100 100 100 100 100 100 90 99 100 99 55 31 100 100 93 100 64 0 2 46
14 16 17 20 19 20 20 21 19 19 2 5 2 15 14 4 0 0 4 8 100 66 59 100 100 100 100 100 100 100 100 96 91 100 83 100 77 41 63 100 97 100 6 5 43
17 18 24 54 33 14 22 22 15 18 5 0 5 18 2 11 0 0 3 43 20 98 100 100 100 100 100 100 100 99 70 99 100 100 92 96 74 99 8 100 40 96 49 38 65
17 19 17 20 22 18 18 21 5 20 12 0 0 5 5 0 0 0 0 5 36 98 82 82 99 100 100 100 100 100 100 88 100 63 100 94 96 99 90 51 5 91 8 40 25
19 18 19 24 18 22 17 14 11 14 4 1 0 1 5 4 0 0 0 0 36 16 99 96 100 100 100 100 98 100 99 58 100 100 100 100 100 8 51 76 5 5 8 5 5
15 20 22 25 20 16 19 5 16 0 5 5 1 0 0 5 2 0 0 0 57 89 87 42 90 94 82 100 100 96 100 100 100 100 100 100 100 18 11 28 2 5 5 2 5
18 12 16 21 16 2 0 0 0 0 0 5 0 0 0 0 0 0 0 0 50 100 100 28 39 40 12 20 100 100 100 100 100 100 100 100 100 99 5 30 5 0 0 0 2
14 10 11 6 8 0 0 5 14 0 0 0 0 0 0 0 0 0 0 0 0 100 66 6 14 94 98 74 80 100 100 100 100 100 100 100 100 100 100 100 100 6 0 4 1
3 0 3 1 0 0 0 17 0 0 0 0 0 0 0 0 0 0 0 0 0 0 50 13 48 98 100 81 78 86 88 99 100 100 100 100 100 99 99 100 100 62 5 6 5
0 0 0 0 0 0 0 0 0 0 0 0 0 0 0 0 0 0 0 0 0 0 0 0 3 7 8 19 70 33 78 100 100 100 100 100 100 98 76 36 22 98 5 1 5
0 0 0 0 0 0 0 0 0 0 0 0 0 0 0 0 0 0 0 0 0 0 0 0 0 0 95 74 1 100 28 42 100 100 100 100 100 100 100 100 100 99 93 6 0
0 0 0 0 0 0 0 0 0 0 0 0 0 0 0 0 0 0 0 0 0 0 0 0 0 0 0 78 49 68 85 26 5 39 100 100 100 100 89 80 94 57 45 13 5
0 0 0 0 0 0 0 0 0 0 0 0 0 0 0 0 0 0 0 0 0 0 0 0 0 0 0 0 5 5 48 56 40 5 3 15 26 50 26 42 0 0 45 9 5
0 0 0 32 0 0 0 0 0 0 0 0 0 0 0 0 0 0 0 0 0 0 0 0 0 0 0 0 0 1 5 12 6 5 1 0 4 0 0 2 0 0 0 2 8
0 0 0 0 0 0 0 0 0 0 0 0 0 0 0 0 0 0 0 0 0 0 0 0 0 0 0 0 0 0 0 3 5 5 6 5 0 0 0 0 0 0 0 0 0
0 2 7 0 0 0 0 0 0 0 0 0 0 0 0 0 0 0 0 0 0 0 0 0 0 0 0 0 0 0 0 0 4 5 2 1 4 0 0 0 0 5 0 1 1
3 0 60 0 0 0 0 0 0 0 0 0 0 0 0 0 0 0 0 0 0 0 0 0 0 0 0 0 0 0 0 0 0 14 0 0 0 0 0 0 3 1 0 5 4
0 0 2 0 0 0 0 0 0 0 0 0 0 0 0 0 0 0 0 0 0 0 0 0 0 0 0 0 0 0 0 0 0 0 0 1 0 0 0 5 84 5 32 5 5
0 0 0 0 0 0 0 0 0 0 0 0 0 0 0 0 0 0 0 0 0 0 0 0 0 0 0 0 0 0 0 0 0 0 0 0 0 0 0 1 67 100 78 5 0
0 0 0 0 0 0 0 0 0 0 0 0 0 0 0 0 0 0 0 0 0 0 0 0 0 0 0 0 0 0 0 0 0 0 0 0 0 0 0 0 4 20 6 5 4
0 0 0 0 0 0 0 0 0 0 0 0 0 0 0 0 0 0 0 0 0 0 0 0 0 0 0 0 0 0 0 0 0 0 0 0 0 0 0 0 0 4 5 5 5
0 0 0 0 0 0 0 0 0 0 0 0 0 0 0 0 0 0 0 0 0 0 0 0 0 0 0 0 0 0 0 0 0 0 0 0 0 0 0 0 0 2 5 5 5
0 0 0 0 0 0 0 0 0 0 0 0 0 0 0 0 0 0 0 0 0 0 0 0 0 0 0 0 0 0 0 0 0 0 0 0 0 0 0 0 0 0 99 41 27
14 1 0 0 0 0 0 0 0 0 0 0 1 0 0 0 0 0 0 0 0 0 0 0 0 0 0 0 0 0 0 0 0 0 0 0 0 0 0 0 0 0 1 86 15
100 6 5 5 1 0 0 0 0 0 0 3 70 25 0 0 0 0 0 0 0 0 0 0 0 0 0 0 0 0 0 0 0 0 0 0 0 0 0 0 2 71 26 0 89
100 57 21 5 4 0 0 0 0 0 0 3 5 49 10 5 0 3 0 0 0 0 0 0 0 0 0 0 0 0 0 0 0 0 0 0 0 0 0 18 20 52 100 61 100
100 100 36 5 5 5 0 0 0 0 0 0 0 0 4 5 15 5 2 1 0 0 0 0 0 0 0 0 0 0 0 0 0 0 0 0 0 0 55 8 38 64 100 100 100

GFSSW_prec_cloud_264.txt.gz
Cloud_Cover
0 14 18 16 18 5 0 0 5 0 0 0 2 0 0 0 0 5 8 5 7 100 100 64 70 93 37 91 79 85 41 28 5 100 100 14 5 0 0 0 0 2 0 0 0
13 20 14 19 20 14 5 4 5 0 0 0 0 4 0 3 0 1 7 5 5 19 100 100 95 91 96 99 99 83 99 19 5 100 100 14 3 0 0 0 0 0 0 0 0
15 14 6 7 5 19 4 5 5 5 2 0 0 0 0 10 0 0 3 17 5 5 94 100 100 58 100 100 100 94 100 79 40 66 37 73 63 0 3 4 0 0 0 0 0
13 19 12 11 1 2 6 3 5 5 0 0 5 5 0 0 0 0 0 5 28 13 13 100 100 54 100 100 100 99 6 33 60 71 62 100 84 1 5 4 2 5 0 0 0
0 2 4 10 2 0 0 0 0 5 5 0 0 0 4 0 0 0 0 0 27 99 100 86 98 54 64 100 100 99 13 89 100 83 100 100 40 83 5 3 0 2 4 0 0
0 0 0 0 0 0 0 0 0 0 2 4 1 35 4 2 0 0 0 0 0 34 5 7 45 100 20 28 100 98 50 41 100 100 100 100 83 30 6 5 4 0 4 0 0
0 0 0 0 0 0 0 0 4 0 0 0 3 2 0 0 0 0 0 0 0 0 0 5 5 2 100 24 80 100 100 72 100 100 100 63 23 6 1 5 3 0 0 0 0
0 0 0 6 0 0 0 0 0 0 0 0 0 0 0 1 0 0 0 5 0 0 0 0 0 3 3 39 99 100 100 81 100 90 100 94 89 99 96 3 3 0 0 4 0
5 0 0 1 0 0 0 0 0 0 0 0 1 0 0 0 0 0 0 5 0 0 20 1 56 5 0 4 74 76 100 100 100 100 100 100 100 100 98 16 4 0 0 2 0
0 0 0 0 0 0 0 1 0 9 2 0 0 0 0 0 0 0 4 0 5 0 4 1 1 30 0 18 99 5 16 100 100 97 100 100 100 91 100 100 74 5 5 30 5
4 0 2 0 0 0 14 0 0 0 0 0 0 0 0 0 0 0 0 0 0 0 0 0 0 5 81 65 25 5 0 7 96 100 100 100 100 100 100 100 100 58 88 5 27
27 18 14 0 0 1 5 0 0 0 0 0 0 0 0 0 0 0 0 0 0 0 0 0 0 0 0 4 2 5 0 0 93 96 100 100 100 100 100 100 100 100 100 100 41
78 36 4 0 1 33 0 0 0 0 0 0 0 0 0 0 0 0 0 0 0 0 0 0 0 0 0 0 1 5 4 0 4 33 59 87 97 100 100 89 100 100 100 100 94
100 100 21 56 9 0 0 0 0 0 0 0 0 0 0 0 0 0 0 0 0 0 0 0 0 0 0 0 0 0 0 0 0 1 51 35 92 97 76 31 5 5 5 3 18
100 100 99 40 0 0 0 0 0 0 0 0 0 0 0 0 0 0 0 0 0 0 0 0 0 0 0 0 0 0 0 0 0 0 0 0 1 5 0 0 5 5 5 0 6
100 100 96 0 0 0 0 0 0 0 0 0 0 0 0 0 0 0 0 0 0 0 0 0 0 0 0 0 0 0 0 0 0 0 0 0 1 4 5 2 44 5 5 5 1
100 100 55 0 0 0 0 0 0 0 0 0 0 0 0 0 0 0 0 0 0 0 0 0 0 0 0 0 0 0 0 0 0 0 0 0 0 0 4 0 1 5 5 5 5
82 40 1 0 0 0 0 0 0 0 0 0 0 0 0 0 0 0 0 0 0 0 0 0 0 0 0 0 0 0 0 0 0 0 0 0 0 0 0 0 3 5 5 5 7
31 0 0 0 0 0 0 0 0 0 0 0 0 0 0 0 0 0 0 0 0 0 0 0 0 0 0 0 0 0 0 0 0 0 0 0 0 0 0 0 0 4 5 5 5
16 0 0 0 0 0 0 0 0 0 0 0 0 0 0 0 0 0 0 0 0 0 0 0 0 0 0 0 0 0 0 0 0 0 0 0 0 0 0 0 0 0 0 5 50
100 11 4 0 0 0 0 0 0 0 0 0 0 0 0 0 0 0 0 0 0 0 0 0 0 0 0 0 0 0 0 0 0 0 0 0 0 0 0 0 0 0 0 0 1
100 100 32 4 0 0 0 0 0 0 0 0 0 0 0 0 0 0 0 0 0 0 0 0 0 0 0 0 0 0 0 0 0 0 0 0 0 0 0 0 0 0 0 0 0
100 100 100 100 5 1 0 0 0 0 0 0 0 0 0 0 0 0 0 0 0 0 0 0 0 0 0 0 0 0 0 0 0 0 0 0 0 0 0 0 0 0 0 0 0
100 100 100 100 76 5 5 3 0 0 0 0 0 0 0 0 0 0 0 0 0 0 0 0 0 0 0 0 0 0 0 0 0 0 0 0 0 0 0 0 0 0 0 0 0
100 100 100 100 100 100 94 5 5 3 0 0 0 0 0 0 0 0 0 0 0 0 0 0 0 0 0 0 0 0 0 0 0 0 0 0 0 0 0 0 0 0 0 0 0
100 100 100 100 100 100 100 98 8 5 1 0 0 0 0 0 0 0 0 0 0 0 0 0 0 0 0 0 0 0 0 0 0 0 0 0 0 0 0 0 0 0 0 0 0
100 100 100 100 100 100 100 100 100 97 10 4 0 0 0 0 0 0 0 0 0 0 0 0 0 0 0 0 0 0 0 0 0 0 0 0 0 0 0 0 3 4 4 0 0

GFSSW_prec_cloud_270.txt.gz
Cloud_Cover
0 0 0 0 0 0 0 0 0 0 0 0 0 0 0 0 5 5 36 100 100 100 100 50 92 83 100 100 100 100 100 99 64 35 99 82 0 0 0 0 0 5 0 4 52
0 0 0 0 0 0 0 5 0 0 0 0 0 0 0 1 4 5 5 96 100 100 100 48 47 52 100 100 100 100 100 97 37 0 9 100 0 2 4 0 19 6 12 0 20
10 0 0 0 0 0 0 2 5 0 0 0 0 0 0 1 0 2 3 1 100 100 100 100 93 80 100 97 100 100 100 19 31 5 26 15 13 100 100 66 0 0 0 0 4
15 0 4 0 0 0 0 0 5 0 0 0 0 0 0 0 0 0 0 0 54 5 93 100 100 100 19 100 54 97 54 72 68 5 99 3 57 9 9 0 0 0 5 4 0
11 2 3 1 0 0 4 0 5 0 4 0 0 0 1 0 0 0 0 0 5 5 5 92 100 100 100 79 87 63 89 8 13 34 89 53 23 2 1 0 1 0 4 7 17
0 0 7 2 0 0 1 2 0 5 0 4 1 35 0 0 0 0 0 0 2 2 2 5 99 100 100 100 96 100 100 92 46 15 41 54 39 26 3 1 3 0 0 4 40
16 16 7 4 0 0 0 3 1 0 4 5 5 0 0 0 0 0 0 0 5 9 13 5 7 100 100 100 100 74 100 100 100 42 94 100 100 100 14 2 0 0 0 0 10
95 59 26 10 2 0 0 0 0 3 1 2 5 1 0 0 0 0 0 0 0 4 5 5 1 3 100 99 100 100 97 100 100 89 100 90 100 100 95 24 0 87 5 5 6
100 100 73 35 2 0 0 0 0 0 0 4 8 5 0 0 0 0 0 0 0 0 0 0 3 4 3 15 100 100 100 75 55 100 100 100 100 100 91 46 9 99 99 8 4
100 100 75 10 6 0 0 0 0 0 0 0 5 4 5 0 0 0 0 0 0 0 0 0 0 1 4 89 48 82 96 56 100 100 100 100 100 90 99 41 32 45 100 81 1
100 100 73 0 0 0 12 0 0 0 0 0 0 5 5 3 0 0 0 0 0 0 0 0 4 13 100 99 26 24 100 100 5 98 100 100 100 100 100 100 100 100 100 99 41
86 97 7 0 0 4 11 0 0 0 0 0 0 0 0 5 4 0 0 0 0 0 0 0 0 8 20 5 9 89 48 59 38 2 11 99 100 100 100 100 100 100 100 100 100
77 0 5 0 7 3 0 0 0 0 0 0 0 0 0 0 0 0 0 0 0 0 0 0 0 0 0 0 0 5 25 25 83 5 2 33 36 100 100 100 100 61 48 100 100
100 100 12 81 4 0 0 0 0 0 0 0 0 0 0 0 0 0 0 0 0 0 0 0 0 0 0 0 0 0 0 0 0 0 0 37 99 11 89 95 54 92 94 5 33
100 100 62 94 0 0 0 0 0 0 0 0 0 0 0 0 0 0 0 0 0 0 0 0 0 0 0 0 0 0 0 0 0 0 0 0 0 88 77 19 15 42 98 100 42
100 100 94 0 0 0 0 0 0 0 0 0 0 0 0 0 0 0 0 0 0 0 0 0 0 0 0 0 0 0 0 0 0 0 0 0 0 0 66 77 100 100 72 100 100
75 60 60 0 0 0 0 0 0 0 0 0 0 0 0 0 0 0 0 0 0 0 0 0 0 0 0 0 0 0 0 0 0 0 0 0 0 0 0 2 6 74 62 14 39
43 65 0 0 0 0 0 0 0 0 0 0 0 0 0 0 0 0 0 0 0 0 0 0 0 0 0 0 0 0 0 0 0 0 0 0 1 6 0 0 0 16 2 1 0
41 5 0 0 0 0 0 0 0 0 1 0 0 0 0 0 0 0 0 0 0 0 0 0 0 0 0 0 0 0 0 0 0 0 0 2 67 5 0 0 0 0 0 0 0
5 5 8 48 13 5 2 5 0 0 6 0 0 0 0 0 0 0 0 0 0 0 0 0 0 0 0 0 0 0 0 0 0 0 0 0 0 54 1 0 0 0 0 0 0
5 35 7 100 100 44 94 99 58 4 0 0 0 0 0 1 0 0 0 0 0 0 0 0 0 0 0 0 0 0 0 0 0 0 0 0 19 92 92 0 0 0 0 0 0
2 99 72 100 100 100 100 100 100 100 0 0 0 0 0 0 0 0 3 0 0 0 0 0 0 0 0 0 0 0 0 0 0 0 0 0 0 5 85 92 5 0 0 0 0
0 6 70 100 100 100 100 100 100 100 56 0 0 0 0 1 0 0 0 0 0 0 0 0 0 0 0 0 5 0 0 0 0 0 0 0 0 100 0 11 28 0 0 0 0
5 90 27 92 100 100 100 100 96 100 100 5 0 0 0 0 1 1 0 0 0 0 0 0 0 0 0 2 14 3 0 0 0 0 0 0 0 97 100 81 42 0 0 0 0
18 87 30 100 100 100 100 100 100 100 100 100 4 0 0 2 5 0 0 0 0 0 0 0 0 0 0 0 0 0 0 0 0 0 0 0 0 0 0 56 74 0 0 0 0
10 5 100 100 100 100 100 100 100 100 100 100 49 2 5 18 58 95 48 5 13 3 0 0 0 0 0 0 0 0 0 0 0 0 0 0 0 0 0 0 0 0 0 0 0
35 24 100 100 100 100 100 100 100 100 100 100 100 88 35 84 70 7 3 35 10 3 2 1 5 5 3 2 1 2 5 6 5 5 4 3 2 0 5 0 0 0 0 0 0

GFSSW_prec_cloud_273.txt.gz
Cloud_Cover
6 0 0 0 0 0 0 0 0 0 0 0 0 1 0 0 5 12 100 100 89 100 89 100 100 100 100 100 100 100 100 100 96 49 27 3 11 0 0 0 0 0 0 1 99
18 4 0 0 0 0 0 0 0 0 0 0 0 2 0 0 3 5 40 100 100 100 100 98 100 100 100 100 100 100 100 99 25 76 82 1 70 6 35 2 4 20 0 0 0
15 2 7 2 0 0 0 0 0 0 0 0 0 0 0 0 2 4 5 100 100 100 100 72 100 100 100 100 100 100 100 92 65 52 47 9 51 30 0 0 0 2 96 100 9
7 5 7 11 1 0 5 0 0 0 0 0 0 0 0 0 0 0 0 5 60 100 63 100 78 73 100 100 100 100 100 22 23 90 88 99 18 6 13 0 0 0 1 86 100
56 28 17 8 8 0 5 0 0 0 0 0 0 0 0 0 0 0 0 6 21 70 72 41 94 100 100 94 99 100 90 85 7 53 97 66 8 0 8 1 0 0 2 32 84
100 100 93 28 12 0 0 5 0 5 0 0 0 19 0 0 0 0 0 5 6 5 3 4 99 100 100 99 100 77 97 14 82 18 80 6 83 100 60 18 0 0 0 1 39
100 100 100 88 17 16 0 0 3 0 5 0 0 0 5 0 0 0 0 0 5 64 74 0 30 100 100 100 90 100 100 44 45 64 12 35 100 100 100 7 0 5 19 4 19
100 100 100 100 28 7 0 0 0 4 0 0 0 5 0 0 0 0 0 0 5 25 54 5 5 53 100 100 100 100 100 100 71 53 93 80 95 100 81 0 0 2 43 24 5
100 100 100 100 41 13 0 0 0 0 5 1 8 0 4 1 0 0 0 0 0 3 4 4 5 2 4 100 100 100 100 70 85 98 91 100 100 100 100 5 2 0 29 100 87
100 100 98 33 36 7 0 0 0 0 1 4 5 0 1 0 0 0 0 0 0 0 0 0 0 0 24 100 100 100 100 100 93 38 100 94 100 100 85 5 5 4 28 100 100
100 100 100 75 13 2 5 0 0 0 0 0 2 0 0 0 0 0 0 0 0 0 0 0 0 3 98 56 71 100 82 98 100 99 100 100 100 100 88 89 100 66 100 100 100
100 100 100 97 5 6 26 0 0 0 0 0 0 0 0 0 0 0 0 0 0 0 0 0 0 4 78 59 5 89 52 99 37 3 0 52 93 100 100 100 100 100 100 100 100
100 100 100 100 15 3 0 0 0 0 0 0 0 0 0 0 0 3 0 0 0 0 0 0 0 1 4 0 2 4 31 25 33 4 2 2 8 21 92 100 100 100 100 100 99
98 100 100 97 0 0 0 0 0 0 0 0 0 0 0 0 0 0 0 0 0 0 0 0 0 0 0 0 0 0 0 4 6 1 0 0 0 50 5 33 70 98 99 82 1
100 100 98 98 0 0 0 0 0 0 0 0 0 0 0 0 0 0 0 0 0 0 0 0 0 0 0 0 0 0 0 0 0 0 0 0 0 0 0 0 32 32 93 47 94
100 100 98 0 0 0 0 0 0 0 0 0 0 0 0 0 0 0 0 0 0 0 0 0 0 0 0 0 0 0 0 0 0 0 0 0 0 0 0 73 7 12 97 100 100
80 59 94 0 0 0 0 0 0 0 0 0 0 0 0 0 0 0 0 0 0 0 0 0 0 0 0 0 0 0 0 0 0 0 0 0 0 0 0 0 43 49 87 100 100
39 58 0 0 0 0 0 0 0 0 0 0 0 0 0 0 0 0 0 0 0 0 0 0 0 0 0 0 0 0 0 0 0 0 0 0 0 0 0 0 0 0 0 10 8
48 0 0 0 0 0 0 0 0 0 0 3 0 0 0 0 0 0 0 0 0 0 0 0 0 0 0 0 0 0 0 0 0 0 0 0 11 7 36 3 0 0 0 0 0
0 0 0 0 0 0 0 6 1 0 0 9 13 0 0 0 0 0 0 0 0 0 0 0 0 0 0 0 0 0 0 0 0 0 0 0 26 99 67 11 0 0 0 0 0
0 0 0 3 5 0 2 91 99 4 0 6 9 0 1 3 0 0 0 0 0 0 0 0 0 0 0 0 0 0 0 0 0 0 0 0 2 3 5 3 44 1 0 0 0
0 0 0 80 95 99 96 100 100 100 96 48 5 0 5 91 69 19 0 0 0 0 0 0 0 0 0 0 0 0 0 0 0 0 0 0 0 5 47 54 97 26 1 0 0
0 0 0 0 11 100 100 100 100 100 97 90 100 56 5 3 25 33 0 0 0 0 0 0 0 0 0 0 0 0 0 0 0 0 0 0 0 98 100 82 42 0 0 0 0
0 3 89 2 0 19 100 100 100 100 100 100 100 100 86 3 0 0 0 0 0 0 0 0 0 0 0 0 0 0 0 0 0 0 0 0 27 100 100 100 64 3 0 0 0
2 12 7 6 5 48 100 100 100 100 100 100 100 93 100 100 2 0 0 0 0 0 0 0 0 0 0 0 0 0 0 1 0 0 0 0 0 22 13 1 0 0 0 0 0
100 76 4 5 19 100 100 100 100 100 100 100 100 100 100 100 5 4 2 4 0 0 0 0 0 0 0 0 0 0 0 0 0 0 0 0 0 0 0 0 0 0 0 0 0
100 98 5 22 100 96 100 100 100 100 100 100 100 100 100 100 92 87 40 0 0 0 0 0 0 0 0 0 0 0 0 0 0 1 0 0 0 0 0 0 0 0 0 0 0